TimeCDT,TemperatureF,Dew PointF,Humidity,Sea Level PressureIn,VisibilityMPH,Wind Direction,Wind SpeedMPH,Gust SpeedMPH,PrecipitationIn,Events,Conditions,WindDirDegrees,DateUTC
12:53 AM,35.1,33.1,92,30.03,10.0,Calm,Calm,-,N/A,,Clear,0,2013-09-22 05:53:00
1:53 AM,34.0,33.1,96,30.04,10.0,Calm,Calm,-,N/A,,Clear,0,2013-09-22 06:53:00
2:36 AM,33.8,32.0,93,30.01,8.0,Calm,Calm,-,N/A,,Partly Cloudy,0,2013-09-22 07:36:00
2:53 AM,34.0,33.1,96,30.04,10.0,Calm,Calm,-,N/A,,Partly Cloudy,0,2013-09-22 07:53:00
3:53 AM,32.0,30.9,96,30.04,10.0,Calm,Calm,-,N/A,,Clear,0,2013-09-22 08:53:00
4:53 AM,34.0,32.0,92,30.05,10.0,Calm,Calm,-,N/A,,Clear,0,2013-09-22 09:53:00
5:53 AM,36.0,35.1,97,30.05,10.0,Calm,Calm,-,N/A,,Clear,0,2013-09-22 10:53:00
6:53 AM,37.0,35.1,93,30.07,10.0,Calm,Calm,-,N/A,,Clear,0,2013-09-22 11:53:00
7:53 AM,42.1,37.9,85,30.09,10.0,Calm,Calm,-,N/A,,Clear,0,2013-09-22 12:53:00
8:53 AM,46.0,39.0,76,30.09,10.0,SSE,6.9,-,N/A,,Clear,150,2013-09-22 13:53:00
9:53 AM,48.9,37.9,66,30.09,10.0,SE,10.4,-,N/A,,Clear,140,2013-09-22 14:53:00
10:53 AM,53.1,39.0,59,30.09,10.0,SE,9.2,-,N/A,,Clear,140,2013-09-22 15:53:00
11:53 AM,55.9,41.0,57,30.08,10.0,SSE,6.9,-,N/A,,Clear,150,2013-09-22 16:53:00
12:53 PM,57.9,42.1,56,30.05,10.0,SE,11.5,16.1,N/A,,Clear,130,2013-09-22 17:53:00
1:53 PM,60.1,42.1,51,30.02,10.0,East,12.7,17.3,N/A,,Clear,80,2013-09-22 18:53:00
2:53 PM,62.1,42.1,48,30.01,10.0,SE,9.2,-,N/A,,Clear,140,2013-09-22 19:53:00
3:53 PM,64.0,44.1,48,29.99,10.0,South,9.2,-,N/A,,Clear,170,2013-09-22 20:53:00
4:53 PM,63.0,44.1,50,29.98,10.0,South,6.9,-,N/A,,Clear,170,2013-09-22 21:53:00
5:53 PM,62.1,44.1,52,29.98,10.0,SSE,5.8,-,N/A,,Clear,160,2013-09-22 22:53:00
6:53 PM,57.0,44.1,62,29.98,10.0,SE,4.6,-,N/A,,Clear,140,2013-09-22 23:53:00
7:40 PM,53.6,44.6,72,29.97,10.0,Calm,Calm,-,N/A,,Partly Cloudy,0,2013-09-23 00:40:00
7:53 PM,53.1,44.1,71,30.00,10.0,Calm,Calm,-,N/A,,Clear,0,2013-09-23 00:53:00
8:53 PM,52.0,44.1,74,30.00,10.0,SSE,3.5,-,N/A,,Clear,160,2013-09-23 01:53:00
9:53 PM,52.0,43.0,71,30.00,10.0,SE,5.8,-,N/A,,Clear,140,2013-09-23 02:53:00
10:53 PM,52.0,42.1,69,30.00,10.0,SSE,5.8,-,N/A,,Clear,150,2013-09-23 03:53:00
11:53 PM,51.1,42.1,71,29.99,10.0,SSE,8.1,-,N/A,,Clear,160,2013-09-23 04:53:00